Location: Gilevgi
(36.8751°N, 30.0581°E)
Time: 20:19:59
(UTC+00:00)

Okean 1-7 Rocket - Pass Details

Date: 11 December 2025
Orbit: 610 x 644 km, 82.5° (Epoch: 12 January)

Event Time Altitude Azimuth Distance (km) Brightness Sun altitude
Rises 15:10:44 0° 0° (N) 2,891 6.7 -5.7°
Reaches altitude 10° 15:13:04 10° 7° (N) 1,977 5.8 -6.1°
Maximum altitude 15:17:13 43° 79° (E) 866 3.9 -6.9°
Drops below altitude 10° 15:21:21 10° 152° (SSE) 1,956 6.1 -7.6°
Sets 15:23:38 0° 159° (SSE) 2,856 7.0 -8.1°
